[[{"header":{"parameterUnit":"m.s-1","parameterCategory":1,"la1":30.2991,"la2":30.254,"lo1":-89.0895,"lo2":-89.0444,"dy":0.0017,"dx":0.0017,"nx":28,"ny":28,"refTime":"2025-09-06T09:00:00:Z","depth":0,"parameterNumber":2,"parameterNumberName":"U-component_of_WINDS"},"data":[0,0,0,0,0,0,0,0,0,0,0,0,0,0,0,0,0,0,0,0,0,0,0,0,0,0,0,0,0,0,0,0,0,0,0,0,0,0,0,0,0,0,0,0,0,0,0,0,0,0,0,0,0,0,0,0,0,0,0.5739,0.5739,0,0.572,0.572,0.572,0.5707,0.5706,0.5706,0.5706,0.5687,0.5686,0.5686,0,0,0,0,0,0,0,0,0,0,0,0,0,0.5762,0.5761,0.5739,0.5739,0.5738,0.572,0.572,0.572,0.5707,0.5706,0.5706,0.5706,0.5687,0.5686,0.5686,0,0,0,0,0,0,0,0,0,0,0,0,0,0.5748,0.5761,0.5739,0.573,0.5729,0.572,0.572,0.572,0.5707,0.5706,0.5706,0.5706,0.5687,0.5686,0.5686,0.5685,0,0,0.5684,0.5684,0,0,0,0,0,0,0,0,0.5749,0.5747,0.5731,0.573,0.5729,0.5716,0.5721,0.5708,0.5707,0.5715,0.5706,0.5706,0.5696,0.5695,0.5692,0.5684,0.5683,0.5684,0.5683,0.5683,0.5683,0,0,0,0,0,0,0,0.575,0.5748,0.5732,0.5731,0.573,0.5726,0.5724,0.5718,0.5707,0.5714,0.5713,0.5711,0.5696,0.5692,0.5691,0.5683,0.5684,0.5683,0.5683,0.5683,0.5673,0.5673,0,0,0,0,0,0,0.5752,0.5749,0.5732,0.5731,0.5739,0.5726,0.5723,0.572,0.5707,0.5705,0.5711,0.5711,0.5694,0.5692,0.5691,0.5688,0.5683,0.5683,0.5682,0.5673,0.5673,0.5673,0,0,0,0,0,0,0.5753,0.5751,0.5733,0.574,0.5737,0.5725,0.5722,0.572,0.5716,0.5705,0.5702,0.571,0.5693,0.5691,0.5686,0.5687,0.5682,0.5682,0.5672,0.5673,0.5673,0.5684,0,0,0,0,0,0,0.5754,0.5751,0.5751,0.574,0.5737,0.5729,0.5722,0.572,0.5716,0.5714,0.5703,0.5701,0.5693,0.5687,0.5686,0.5686,0.5681,0.5672,0.5672,0.5673,0.5683,0.5684,0.5685,0,0,0,0,0,0.5755,0.5755,0.5751,0.5749,0.5737,0.573,0.5728,0.5719,0.5716,0.5715,0.5707,0.5701,0.5687,0.5687,0.5685,0.5685,0.5672,0.5672,0.5673,0.5683,0.5684,0.5685,0,0,0,0,0,0,0.5767,0.5754,0.5749,0.5746,0.5739,0.5727,0.5727,0.5721,0.5714,0.5713,0.5703,0.57,0.5696,0.569,0.569,0.5683,0.5679,0.5679,0.5687,0.5689,0.5689,0.5691,0.5681,0,0,0,0,0,0.577,0.5766,0.5754,0.5752,0.5749,0.5738,0.5735,0.5729,0.5721,0.5718,0.571,0.5702,0.5696,0.5692,0.5685,0.5682,0.5679,0.5682,0.5683,0.5683,0.5683,0.568,0.5681,0.5674,0.5674,0.5674,0,0,0.5775,0.5767,0.5765,0.5755,0.5748,0.5744,0.5736,0.5732,0.5728,0.5717,0.5711,0.5705,0.5696,0.5691,0.5689,0.5686,0.5685,0.5684,0.5685,0.5684,0.5681,0.5681,0.5682,0.5674,0.5674,0.5674,0,0,0.5782,0.5776,0.5773,0.5767,0.5758,0.575,0.575,0.5739,0.5734,0.5728,0.572,0.5715,0.5705,0.5698,0.5693,0.5696,0.569,0.5695,0.57,0.5697,0.5697,0.5698,0.5698,0.5699,0.5695,0.5695,0.5695,0,0.5789,0.5782,0.5773,0.5769,0.5764,0.5754,0.5751,0.5745,0.5734,0.5731,0.5728,0.5715,0.5708,0.5701,0.5702,0.5698,0.5697,0.5696,0.5698,0.5698,0.5699,0.5699,0.5699,0.5695,0.5695,0.5695,0.5695,0,0.5791,0.5787,0.5786,0.5775,0.577,0.5767,0.5757,0.5753,0.5747,0.574,0.5733,0.5725,0.5716,0.5714,0.5708,0.5706,0.5705,0.57,0.5695,0.57,0.57,0.57,0.5696,0.5696,0.5696,0.5696,0,0,0.5806,0.579,0.579,0.5784,0.5773,0.5769,0.5764,0.5756,0.5752,0.5745,0.574,0.5731,0.5727,0.5722,0.5715,0.5712,0.5714,0.5708,0.5707,0.5709,0.5711,0.5714,0.5714,0.571,0.571,0.571,0.5711,0,0.581,0.5803,0.5794,0.5789,0.5783,0.5773,0.5769,0.5762,0.5755,0.5749,0.5741,0.5735,0.573,0.5726,0.5723,0.5715,0.5714,0.5714,0.5705,0.5705,0.5708,0.5714,0.5718,0.5719,0.5711,0.5711,0.5711,0,0.5815,0.5808,0.5802,0.579,0.5788,0.5784,0.5775,0.577,0.5761,0.5756,0.5749,0.5742,0.5736,0.5732,0.5723,0.5723,0.5719,0.5714,0.5714,0.5713,0.5708,0.5713,0.572,0.572,0.5711,0.5711,0.5711,0,0.5825,0.5814,0.5809,0.5805,0.5791,0.5789,0.5783,0.5773,0.5768,0.576,0.5757,0.5748,0.5744,0.5737,0.5727,0.5725,0.5719,0.5714,0.5714,0.5714,0.5713,0.5713,0.5719,0.5711,0.5711,0.5711,0.5711,0,0.5831,0.5828,0.5813,0.581,0.5806,0.5796,0.5792,0.5785,0.5776,0.5771,0.5762,0.5757,0.5744,0.5738,0.573,0.5724,0.5722,0.5717,0.5715,0.5718,0.5718,0.5714,0.5714,0.5711,0.5711,0.5711,0.5711,0,0.5842,0.5832,0.5826,0.5813,0.581,0.5807,0.5796,0.5792,0.5785,0.5778,0.5776,0.5764,0.5756,0.5745,0.5734,0.5728,0.5723,0.572,0.5726,0.5725,0.5725,0.5725,0.5728,0.5728,0.572,0.572,0.5721,0,0.5846,0.5843,0.583,0.5826,0.582,0.5814,0.5809,0.5798,0.5793,0.5782,0.5779,0.577,0.5763,0.575,0.574,0.5731,0.5727,0.5729,0.5726,0.5728,0.5726,0.5726,0.5726,0.573,0.573,0.573,0.573,0,0.5854,0.5849,0.5842,0.5834,0.5828,0.5821,0.5813,0.581,0.5797,0.5792,0.5784,0.5778,0.5766,0.5757,0.5746,0.5739,0.5732,0.5731,0.573,0.5733,0.5737,0.5734,0.5728,0.5731,0.5731,0.5731,0.5731,0.5731,0.5861,0.5858,0.5848,0.584,0.5833,0.5826,0.5822,0.5813,0.5806,0.5796,0.579,0.5782,0.5771,0.5756,0.575,0.5742,0.574,0.5739,0.5739,0.5739,0.5739,0.5738,0.574,0.574,0.574,0.574,0.574,0,0.5868,0.5861,0.5854,0.5843,0.5837,0.5832,0.5822,0.5818,0.5811,0.5802,0.5794,0.5784,0.5775,0.5764,0.5754,0.575,0.5747,0.5748,0.5748,0.5746,0.5743,0.5744,0.5751,0.5751,0.5751,0.5751,0.5751,0.5751,0.5871,0.5865,0.5859,0.5849,0.5842,0.5834,0.5829,0.5822,0.5815,0.5804,0.5797,0.579,0.5779,0.5769,0.576,0.5757,0.5753,0.5755,0.5751,0.5748,0.5747,0.5746,0.5747,0.5755,0.5755,0.5756,0.5756,0.5756]},{"header":{"parameterUnit":"m.s-1","parameterCategory":1,"la1":30.2991,"la2":30.254,"lo1":-89.0895,"lo2":-89.0444,"dy":0.0017,"dx":0.0017,"nx":28,"ny":28,"refTime":"2025-09-06T09:00:00:Z","depth":0,"parameterNumber":3,"parameterNumberName":"V-component_of_WINDS"},"data":[0,0,0,0,0,0,0,0,0,0,0,0,0,0,0,0,0,0,0,0,0,0,0,0,0,0,0,0,0,0,0,0,0,0,0,0,0,0,0,0,0,0,0,0,0,0,0,0,0,0,0,0,0,0,0,0,0,0,-0.5381,-0.5381,0,-0.5415,-0.5415,-0.5415,-0.5424,-0.5423,-0.5423,-0.5423,-0.5461,-0.5462,-0.5464,0,0,0,0,0,0,0,0,0,0,0,0,0,-0.5326,-0.5327,-0.5381,-0.5381,-0.5381,-0.5415,-0.5415,-0.5416,-0.5424,-0.5423,-0.5423,-0.5423,-0.5461,-0.5462,-0.5464,0,0,0,0,0,0,0,0,0,0,0,0,0,-0.5354,-0.5328,-0.538,-0.5389,-0.5391,-0.5415,-0.5415,-0.5416,-0.5424,-0.5423,-0.5423,-0.5423,-0.546,-0.5462,-0.5464,-0.5482,0,0,-0.547,-0.547,0,0,0,0,0,0,0,0,-0.5353,-0.5356,-0.5388,-0.5389,-0.539,-0.5414,-0.541,-0.5438,-0.5424,-0.5411,-0.5423,-0.5423,-0.5446,-0.5449,-0.5456,-0.5484,-0.5486,-0.547,-0.5471,-0.5472,-0.5472,0,0,0,0,0,0,0,-0.5351,-0.5355,-0.5394,-0.5388,-0.539,-0.5393,-0.5397,-0.5415,-0.543,-0.5412,-0.5413,-0.5417,-0.5447,-0.5455,-0.5457,-0.5486,-0.547,-0.5471,-0.5472,-0.5473,-0.5533,-0.5533,0,0,0,0,0,0,-0.5347,-0.5353,-0.5393,-0.5395,-0.537,-0.5394,-0.5398,-0.5407,-0.543,-0.5433,-0.5417,-0.5417,-0.5452,-0.5455,-0.5459,-0.5483,-0.5472,-0.5473,-0.5474,-0.5532,-0.5533,-0.5534,0,0,0,0,0,0,-0.5345,-0.535,-0.5392,-0.5374,-0.538,-0.5395,-0.5405,-0.5408,-0.5416,-0.5434,-0.5437,-0.5422,-0.5451,-0.5456,-0.5477,-0.5484,-0.5474,-0.5476,-0.5532,-0.5533,-0.5533,-0.553,0,0,0,0,0,0,-0.5344,-0.535,-0.5356,-0.5374,-0.5381,-0.5408,-0.5406,-0.5409,-0.5418,-0.5419,-0.5439,-0.5442,-0.5452,-0.5474,-0.5478,-0.5487,-0.5477,-0.5531,-0.5532,-0.5533,-0.553,-0.5531,-0.5532,0,0,0,0,0,-0.5342,-0.5354,-0.5356,-0.5361,-0.5389,-0.5408,-0.5412,-0.5421,-0.5419,-0.5426,-0.5438,-0.5442,-0.5483,-0.5476,-0.5481,-0.549,-0.5531,-0.5532,-0.5533,-0.553,-0.5531,-0.5532,0,0,0,0,0,0,-0.5337,-0.5357,-0.5359,-0.5377,-0.5391,-0.5409,-0.5418,-0.5422,-0.5438,-0.5437,-0.545,-0.5454,-0.5474,-0.5484,-0.5476,-0.551,-0.5507,-0.5509,-0.5502,-0.5504,-0.5505,-0.5502,-0.5479,0,0,0,0,0,-0.5338,-0.5351,-0.5368,-0.5382,-0.5389,-0.5403,-0.5411,-0.5418,-0.5433,-0.5439,-0.5452,-0.5467,-0.5484,-0.5494,-0.551,-0.5532,-0.5537,-0.554,-0.5541,-0.5542,-0.5544,-0.5557,-0.5559,-0.5537,-0.5537,-0.5537,0,0,-0.534,-0.5352,-0.536,-0.5382,-0.5393,-0.5407,-0.5407,-0.5422,-0.5434,-0.5441,-0.5461,-0.5472,-0.549,-0.5511,-0.5521,-0.552,-0.5551,-0.5543,-0.5544,-0.5545,-0.5558,-0.5561,-0.5562,-0.5538,-0.5538,-0.5538,0,0,-0.5351,-0.5362,-0.5375,-0.5387,-0.5403,-0.5412,-0.5416,-0.5434,-0.5441,-0.5461,-0.5467,-0.5482,-0.5509,-0.5522,-0.5533,-0.555,-0.5555,-0.5555,-0.556,-0.5573,-0.5575,-0.5576,-0.5584,-0.5586,-0.5557,-0.5557,-0.5557,0,-0.5352,-0.5373,-0.5382,-0.5397,-0.5407,-0.5414,-0.5429,-0.544,-0.5461,-0.5469,-0.5467,-0.5503,-0.5515,-0.554,-0.5544,-0.5552,-0.5558,-0.5553,-0.5574,-0.5575,-0.5577,-0.5584,-0.5587,-0.5557,-0.5557,-0.5557,-0.5557,0,-0.5374,-0.5388,-0.5398,-0.5418,-0.5429,-0.5443,-0.5456,-0.5467,-0.5472,-0.5482,-0.5503,-0.5519,-0.5539,-0.5545,-0.5551,-0.5571,-0.557,-0.5571,-0.5568,-0.5579,-0.5586,-0.5588,-0.5557,-0.5557,-0.5557,-0.5557,0,0,-0.5383,-0.5408,-0.5411,-0.542,-0.544,-0.5452,-0.5468,-0.5486,-0.5496,-0.5511,-0.5525,-0.5549,-0.555,-0.5562,-0.557,-0.5581,-0.5595,-0.558,-0.5581,-0.5583,-0.5619,-0.5619,-0.5622,-0.5598,-0.5598,-0.5599,-0.5618,0,-0.5397,-0.5424,-0.5433,-0.5456,-0.5471,-0.5478,-0.5492,-0.5506,-0.5516,-0.5531,-0.5542,-0.5559,-0.5559,-0.5566,-0.5578,-0.5591,-0.5602,-0.5589,-0.5613,-0.5613,-0.5608,-0.5625,-0.5624,-0.5642,-0.5621,-0.5621,-0.5622,0,-0.5417,-0.5431,-0.5456,-0.5474,-0.5481,-0.5493,-0.5511,-0.5525,-0.5542,-0.5548,-0.5562,-0.5569,-0.5587,-0.5583,-0.561,-0.5601,-0.5611,-0.5619,-0.562,-0.5623,-0.5618,-0.5629,-0.5647,-0.565,-0.5626,-0.5625,-0.5625,0,-0.5421,-0.5447,-0.5465,-0.5473,-0.5495,-0.5504,-0.5514,-0.553,-0.5541,-0.5558,-0.5565,-0.5584,-0.5595,-0.561,-0.5622,-0.5618,-0.5648,-0.5645,-0.5655,-0.5655,-0.5661,-0.5661,-0.5682,-0.5667,-0.5667,-0.5667,-0.5667,0,-0.5437,-0.5451,-0.5468,-0.5479,-0.5496,-0.5508,-0.5525,-0.5535,-0.555,-0.5565,-0.5573,-0.5586,-0.5602,-0.5618,-0.5628,-0.5649,-0.5654,-0.5661,-0.5663,-0.566,-0.566,-0.5667,-0.5667,-0.5668,-0.5668,-0.5668,-0.5668,0,-0.5445,-0.5456,-0.5476,-0.5496,-0.5501,-0.5513,-0.553,-0.5542,-0.5552,-0.5571,-0.5576,-0.5593,-0.5612,-0.5626,-0.5652,-0.5659,-0.5682,-0.5684,-0.5675,-0.5677,-0.5687,-0.5686,-0.5714,-0.5719,-0.57,-0.57,-0.57,0,-0.5454,-0.5465,-0.5485,-0.5495,-0.5505,-0.552,-0.5531,-0.5543,-0.5555,-0.5576,-0.5586,-0.5606,-0.5622,-0.5654,-0.5669,-0.5689,-0.5692,-0.5701,-0.5695,-0.5692,-0.5693,-0.5693,-0.5694,-0.5702,-0.5702,-0.5702,-0.5702,0,-0.5469,-0.5474,-0.5489,-0.5506,-0.5519,-0.5534,-0.5548,-0.5556,-0.5571,-0.5584,-0.5604,-0.5617,-0.5643,-0.5663,-0.5684,-0.5696,-0.5702,-0.5704,-0.5707,-0.5704,-0.5699,-0.5703,-0.5678,-0.5703,-0.5703,-0.5703,-0.5703,-0.5703,-0.5478,-0.5489,-0.5505,-0.5522,-0.5534,-0.5548,-0.556,-0.5572,-0.5588,-0.561,-0.5616,-0.5637,-0.5655,-0.5685,-0.5697,-0.5715,-0.5714,-0.5719,-0.572,-0.5722,-0.5722,-0.5696,-0.5718,-0.5718,-0.5718,-0.5718,-0.5718,0,-0.5494,-0.5505,-0.552,-0.554,-0.5554,-0.5557,-0.5574,-0.5586,-0.5604,-0.562,-0.5636,-0.5659,-0.5679,-0.5696,-0.5717,-0.5728,-0.5732,-0.5733,-0.5733,-0.5736,-0.5721,-0.5716,-0.573,-0.573,-0.573,-0.573,-0.573,-0.573,-0.5504,-0.5523,-0.553,-0.5556,-0.5567,-0.5586,-0.5596,-0.5609,-0.5622,-0.5648,-0.5664,-0.5675,-0.5692,-0.5714,-0.5733,-0.5738,-0.5746,-0.5747,-0.5753,-0.5738,-0.5737,-0.5735,-0.5731,-0.5748,-0.5749,-0.5767,-0.5767,-0.5767]}]]